GW5203 Weather Reports


time (UTC)temp
C
wind
direction
speed
KPH
gust
KPH
rain 1hr
cm
rain 24hr
cm
rain mn
cm
humidity
%
barometer
mb
20260906122029 20 19 1.6 4.8 0.00 0.00 0.00 92 1012.8
20260906121024 19 37 0.0 1.6 0.00 0.00 0.00 91 1012.4
20260906120020 19 50 0.0 3.2 0.00 0.00 0.00 91 1012.3
20260906115016 19 52 0.0 1.6 0.00 0.00 0.00 91 1012.3
20260906114032 19 50 0.0 1.6 0.00 0.00 0.00 91 1012.1
20260906113028 19 30 0.0 1.6 0.00 0.00 0.00 91 1011.9
20260906112025 19 0.0 0.0 0.00 0.00 0.00 91 1011.7
20260906111021 19 41 1.6 3.2 0.00 0.00 0.00 91 1011.6
20260906110017 19 37 1.6 3.2 0.00 0.00 0.00 91 1011.7
20260906105033 19 3 1.6 4.8 0.00 0.00 0.00 91 1011.5
20260906104109 19 16 1.6 6.4 0.00 0.00 0.00 91 1011.5
20260906103025 19 41 1.6 3.2 0.00 0.00 0.00 91 1011.3
20260906102020 19 37 1.6 4.8 0.00 0.00 0.00 91 1011.2
20260906101017 20 33 1.6 4.8 0.00 0.00 0.00 90 1011.3
20260906100033 20 34 1.6 4.8 0.00 0.00 0.00 90 1011.3
20260906095028 20 21 3.2 9.7 0.00 0.00 0.00 90 1011.1
20260906094025 20 59 1.6 3.2 0.00 0.00 0.00 90 1011.1
20260906093022 20 47 1.6 3.2 0.00 0.00 0.00 90 1011.0
20260906092038 20 18 1.6 6.4 0.00 0.00 0.00 90 1011.1
20260906091034 20 19 1.6 11.3 0.00 0.00 0.00 90 1011.1
20260906090030 20 21 1.6 3.2 0.00 0.00 0.00 90 1011.0
20260906085026 20 14 1.6 4.8 0.00 0.00 0.00 90 1011.1
20260906084022 20 19 0.0 4.8 0.00 0.00 0.00 90 1010.9
20260906083018 20 10 0.0 3.2 0.00 0.00 0.00 89 1011.0
20260906082033 20 12 0.0 6.4 0.00 0.00 0.00 89 1011.0
20260906081029 20 31 1.6 4.8 0.00 0.00 0.00 89 1011.0
20260906080025 20 15 0.0 3.2 0.00 0.00 0.00 89 1011.1
20260906075042 21 14 0.0 3.2 0.00 0.00 0.00 89 1011.3
20260906074018 21 13 1.6 3.2 0.00 0.00 0.00 89 1011.2
20260906073034 21 18 0.0 3.2 0.00 0.00 0.00 89 1011.1
20260906072029 21 14 0.0 3.2 0.00 0.00 0.00 89 1011.2
20260906071025 21 4 0.0 3.2 0.00 0.00 0.00 88 1011.3
20260906070021 21 29 1.6 4.8 0.00 0.00 0.00 88 1011.3
20260906065017 21 22 1.6 4.8 0.00 0.00 0.00 88 1011.4
20260906064032 21 29 1.6 4.8 0.00 0.00 0.00 88 1011.2
20260906063028 21 27 0.0 1.6 0.00 0.00 0.00 88 1011.1
20260906062024 21 12 0.0 4.8 0.00 0.00 0.00 88 1011.1
20260906061020 22 22 0.0 3.2 0.00 0.00 0.00 87 1011.2
20260906060015 22 33 1.6 3.2 0.00 0.00 0.00 87 1011.2
20260906055051 22 58 1.6 4.8 0.00 0.00 0.00 87 1011.2
20260906054027 22 35 1.6 4.8 0.00 0.00 0.00 87 1011.3
20260906053023 22 59 1.6 4.8 0.00 0.00 0.00 87 1011.3
20260906052019 22 65 3.2 12.9 0.00 0.00 0.00 87 1011.1
20260906051035 22 59 1.6 9.7 0.00 0.00 0.00 87 1011.1
20260906050031 22 50 1.6 4.8 0.00 0.00 0.00 87 1011.0
20260906045027 22 52 1.6 6.4 0.00 0.00 0.00 87 1011.0
20260906044025 22 79 3.2 6.4 0.00 0.00 0.00 87 1010.9
20260906043020 22 68 3.2 12.9 0.00 0.00 0.00 87 1010.8
20260906042036 22 67 3.2 11.3 0.00 0.00 0.00 87 1010.8
20260906041032 22 61 1.6 4.8 0.00 0.00 0.00 87 1010.6
20260906040027 22 77 4.8 12.9 0.00 0.00 0.00 86 1010.5
20260906035023 22 79 3.2 6.4 0.00 0.00 0.00 86 1010.6
20260906034019 22 65 3.2 6.4 0.00 0.00 0.00 86 1010.7
20260906033055 22 63 1.6 9.7 0.00 0.00 0.00 86 1010.6
20260906032031 22 79 4.8 14.5 0.00 0.00 0.00 86 1010.7
20260906031027 22 103 3.2 12.9 0.00 0.00 0.00 86 1010.9
20260906030043 22 79 3.2 9.7 0.00 0.00 0.00 85 1011.0
20260906025039 22 73 3.2 9.7 0.00 0.00 0.00 85 1010.9
20260906024035 22 85 3.2 6.4 0.00 0.00 0.00 85 1011.1
20260906023031 22 83 3.2 12.9 0.00 0.00 0.00 85 1010.8
20260906022027 22 69 4.8 16.1 0.00 0.00 0.00 85 1011.0
20260906021023 22 67 4.8 11.3 0.00 0.00 0.00 85 1010.8
20260906020020 22 79 3.2 6.4 0.00 0.00 0.00 85 1010.8
20260906015015 22 72 6.4 16.1 0.00 0.00 0.00 85 1010.9
20260906014032 22 59 4.8 12.9 0.00 0.00 0.00 85 1011.0
20260906013028 22 75 4.8 16.1 0.00 0.00 0.00 84 1011.1
20260906012024 22 37 4.8 14.5 0.00 0.00 0.00 84 1011.0
20260906011020 22 75 6.4 24.1 0.00 0.00 0.00 84 1011.1
20260906010015 23 72 4.8 16.1 0.00 0.00 0.00 84 1010.9
20260906005032 23 67 6.4 16.1 0.00 0.00 0.00 83 1010.9
20260906004027 23 73 6.4 17.7 0.00 0.00 0.00 83 1010.9
20260906003024 23 61 3.2 11.3 0.00 0.00 0.00 83 1010.7
20260906002039 23 67 6.4 14.5 0.00 0.00 0.00 82 1010.6
20260906001015 24 61 8.0 20.9 0.00 0.00 0.00 82 1010.7
20260906000032 24 74 4.8 11.3 0.00 0.00 0.00 82 1010.6
20260905235028 25 89 4.8 12.9 0.00 0.00 0.00 82 1010.4
20260905234024 25 78 4.8 16.1 0.00 0.00 0.00 81 1010.4
20260905233019 25 76 4.8 16.1 0.00 0.00 0.00 81 1010.4
20260905232016 26 56 4.8 16.1 0.00 0.00 0.00 81 1010.2
20260905231124 26 52 4.8 16.1 0.00 0.00 0.00 81 1010.1
20260905230027 26 68 4.8 16.1 0.00 0.00 0.00 81 1010.0
20260905225023 26 62 4.8 17.7 0.00 0.00 0.00 80 1009.8
20260905224019 27 74 6.4 25.7 0.00 0.00 0.00 80 1009.7
20260905223055 27 65 4.8 11.3 0.00 0.00 0.00 80 1009.5
20260905222032 27 35 3.2 16.1 0.00 0.00 0.00 80 1009.6
20260905221028 27 2 4.8 14.5 0.00 0.00 0.00 81 1009.5
20260905220044 27 66 4.8 14.5 0.00 0.00 0.00 81 1009.5
20260905215020 27 40 3.2 9.7 0.00 0.00 0.00 82 1009.7
20260905214035 27 5 4.8 11.3 0.00 0.00 0.00 82 1009.7
20260905213052 26 3 3.2 11.3 0.00 0.00 0.00 82 1009.7
20260905212027 27 23 3.2 12.9 0.00 0.00 0.00 83 1009.6
20260905211022 27 60 3.2 4.8 0.00 0.00 0.00 84 1009.7
20260905210018 26 6 3.2 9.7 0.00 0.00 0.00 84 1009.8
20260905205034 26 58 3.2 12.9 0.00 0.00 0.00 84 1009.9
20260905204031 26 61 3.2 9.7 0.00 0.00 0.00 84 1010.0
20260905203046 26 63 3.2 6.4 0.00 0.00 0.00 85 1010.0
20260905202022 26 34 3.2 6.4 0.00 0.00 0.00 85 1009.7
20260905201018 26 18 3.2 6.4 0.00 0.00 0.00 84 1009.8
20260905200035 25 10 1.6 9.7 0.00 0.00 0.00 84 1009.7
20260905195051 26 17 3.2 11.3 0.00 0.00 0.00 84 1009.7
20260905194026 26 63 4.8 12.9 0.00 0.00 0.00 84 1009.7
20260905193023 26 39 3.2 6.4 0.00 0.00 0.00 84 1009.6
20260905192018 26 66 3.2 6.4 0.00 0.00 0.00 84 1009.8
20260905191055 27 39 3.2 6.4 0.00 0.00 0.00 84 1009.6
20260905190030 27 57 3.2 11.3 0.00 0.00 0.00 84 1009.9
20260905185027 27 53 3.2 9.7 0.00 0.00 0.00 84 1009.6
20260905184023 27 36 4.8 16.1 0.00 0.00 0.00 84 1009.8
20260905183039 27 50 3.2 11.3 0.00 0.00 0.00 85 1009.7
20260905182035 27 71 3.2 9.7 0.00 0.00 0.00 85 1009.8
20260905181031 27 58 3.2 6.4 0.00 0.00 0.00 85 1009.4
20260905180026 27 67 4.8 12.9 0.00 0.00 0.00 86 1009.5
20260905175023 27 29 3.2 9.7 0.00 0.00 0.00 86 1009.1
20260905174019 27 51 3.2 11.3 0.00 0.00 0.00 86 1009.2
20260905173034 27 47 3.2 9.7 0.00 0.00 0.00 86 1009.0
20260905172031 27 45 3.2 12.9 0.00 0.00 0.00 87 1009.1
20260905171026 28 39 4.8 11.3 0.00 0.00 0.00 87 1009.2
20260905170042 27 83 4.8 11.3 0.00 0.00 0.00 88 1009.1
20260905165019 27 60 3.2 11.3 0.00 0.00 0.00 88 1009.3
20260905164035 27 42 3.2 11.3 0.00 0.00 0.00 88 1009.2
20260905163030 27 56 3.2 12.9 0.00 0.00 0.00 89 1009.2
20260905162026 26 65 3.2 6.4 0.00 0.00 0.00 89 1009.1
20260905161021 26 43 3.2 6.4 0.00 0.00 0.00 89 1009.0
20260905160017 26 9 3.2 9.7 0.00 0.00 0.00 89 1009.1
20260905155033 26 47 3.2 12.9 0.00 0.00 0.00 89 1009.2
20260905154030 26 77 3.2 12.9 0.00 0.00 0.00 90 1008.8
20260905153026 26 87 4.8 12.9 0.00 0.00 0.00 90 1008.9
20260905152022 25 83 3.2 4.8 0.00 0.00 0.00 91 1008.6
20260905151018 25 35 3.2 11.3 0.00 0.00 0.00 91 1008.6
20260905150035 25 59 3.2 11.3 0.00 0.00 0.00 91 1008.4
20260905145051 24 67 4.8 14.5 0.00 0.00 0.00 91 1008.4
20260905144047 24 78 3.2 9.7 0.00 0.00 0.00 91 1008.4
20260905143023 24 57 3.2 11.3 0.00 0.00 0.00 91 1008.5
20260905142019 23 72 3.2 12.9 0.00 0.00 0.00 91 1008.7
20260905141035 23 54 1.6 9.7 0.00 0.00 0.00 91 1008.5
20260905140031 23 82 3.2 9.7 0.00 0.00 0.00 91 1008.5
20260905135047 23 51 4.8 17.7 0.00 0.00 0.00 91 1008.6
20260905134043 23 79 4.8 14.5 0.00 0.00 0.00 91 1008.6
20260905133019 23 53 3.2 12.9 0.00 0.00 0.00 91 1008.8
20260905132035 23 32 3.2 11.3 0.00 0.00 0.00 91 1008.9
20260905131030 23 75 1.6 9.7 0.00 0.00 0.00 91 1009.0
20260905130026 23 62 1.6 11.3 0.00 0.00 0.00 91 1008.6
20260905125103 23 74 3.2 9.7 0.00 0.00 0.00 91 1008.4
20260905124019 23 72 3.2 11.3 0.00 0.00 0.00 91 1008.4
20260905123035 23 64 1.6 6.4 0.00 0.00 0.00 91 1008.5